ETH443 OEMA-HAAB

Flight info

Callsign ETH443
Flight time 3h 9m
Altitude 36000
Route SISUD B544 RBG/N0472F370 B544 JDW G650 RASKA/N0467F380 UG650 KONET/N0467F370 DCT EKBOB/N0465F380 UT114 MEKEL
Aircraft B738/M-SDE2E3FGHIRWXY/LB1

Departure

Time 2026-04-28 19:52
Airport Prince Mohammad Bin Abdulaziz Airport (OEMA)

Arrival

Time 2026-04-28 23:02
Airport Addis Ababa Bole International Airport (HAAB)
Time Latitude Longitude Altitude Speed Heading
2026-04-28 19:24 24.55744 39.71230 2106 ft 0 kts 79°
2026-04-28 19:41 24.55744 39.71227 2105 ft 3 kts 78°
2026-04-28 19:42 24.55737 39.71199 2104 ft 4 kts 70°
2026-04-28 19:42 24.55726 39.71172 2106 ft 4 kts 59°
2026-04-28 19:42 24.55711 39.71149 2105 ft 4 kts 41°
2026-04-28 19:42 24.55697 39.71138 2107 ft 4 kts 17°
2026-04-28 19:43 24.55682 39.71135 2104 ft 0 kts 349°
2026-04-28 19:45 24.55685 39.71135 2107 ft 2 kts 349°
2026-04-28 19:45 24.55711 39.71129 2106 ft 6 kts 349°
2026-04-28 19:45 24.55773 39.71116 2104 ft 11 kts 348°
2026-04-28 19:45 24.55867 39.71095 2104 ft 16 kts 348°
2026-04-28 19:46 24.55993 39.71071 2104 ft 21 kts 348°
2026-04-28 19:46 24.56138 39.71039 2104 ft 21 kts 349°
2026-04-28 19:46 24.56280 39.71009 2104 ft 20 kts 348°
2026-04-28 19:46 24.56388 39.70986 2104 ft 9 kts 349°
2026-04-28 19:47 24.56431 39.70972 2104 ft 4 kts 332°
2026-04-28 19:47 24.56438 39.70961 2104 ft 0 kts 301°
2026-04-28 19:47 24.56442 39.70953 2104 ft 3 kts 297°
2026-04-28 19:47 24.56445 39.70914 2104 ft 7 kts 259°
2026-04-28 19:48 24.56434 39.70849 2105 ft 7 kts 261°
2026-04-28 19:48 24.56441 39.70795 2106 ft 7 kts 297°
2026-04-28 19:48 24.56487 39.70771 2106 ft 9 kts 349°
2026-04-28 19:48 24.56557 39.70756 2107 ft 12 kts 349°
2026-04-28 19:49 24.56656 39.70736 2106 ft 17 kts 349°
2026-04-28 19:49 24.56783 39.70708 2106 ft 21 kts 348°
2026-04-28 19:49 24.56937 39.70672 2105 ft 24 kts 348°
2026-04-28 19:49 24.57098 39.70636 2105 ft 22 kts 349°
2026-04-28 19:50 24.57427 39.70575 2107 ft 24 kts 347°
2026-04-28 19:50 24.57540 39.70545 2106 ft 11 kts 345°
2026-04-28 19:50 24.57613 39.70524 2106 ft 11 kts 345°
2026-04-28 19:51 24.57648 39.70468 2107 ft 10 kts 264°
2026-04-28 19:51 24.57636 39.70390 2111 ft 11 kts 259°
2026-04-28 19:51 24.57592 39.70343 2110 ft 12 kts 173°
2026-04-28 19:51 24.57366 39.70391 2111 ft 67 kts 169°
2026-04-28 19:52 24.56677 39.70537 2113 ft 133 kts 169°
2026-04-28 19:52 24.55596 39.70767 2235 ft 175 kts 169°
2026-04-28 19:52 24.54402 39.71037 3062 ft 177 kts 169°
2026-04-28 19:52 24.53184 39.71309 3804 ft 181 kts 171°
2026-04-28 19:53 24.51898 39.71573 4369 ft 198 kts 173°
2026-04-28 19:53 24.50440 39.71856 4646 ft 226 kts 172°
2026-04-28 19:53 24.48858 39.72187 5159 ft 235 kts 171°
2026-04-28 19:53 24.47190 39.72538 5550 ft 259 kts 171°
2026-04-28 19:54 24.45340 39.72927 5968 ft 278 kts 171°
2026-04-28 19:54 24.43425 39.73331 6770 ft 281 kts 171°
2026-04-28 19:54 24.42153 39.73600 7343 ft 281 kts 171°
2026-04-28 19:54 24.40235 39.74003 8253 ft 280 kts 172°
2026-04-28 19:55 24.38318 39.74405 9144 ft 281 kts 172°
2026-04-28 19:55 24.36396 39.74807 10028 ft 282 kts 172°
2026-04-28 19:55 24.34426 39.75054 10545 ft 293 kts 186°
2026-04-28 19:55 24.32366 39.74570 10719 ft 314 kts 203°
2026-04-28 19:56 24.30322 39.73526 10901 ft 335 kts 208°
2026-04-28 19:56 24.28183 39.72324 11107 ft 353 kts 209°
2026-04-28 19:56 24.25966 39.71054 11545 ft 363 kts 209°
2026-04-28 19:56 24.23721 39.69771 12210 ft 365 kts 209°
2026-04-28 19:57 24.21466 39.68491 12921 ft 366 kts 209°
2026-04-28 19:57 24.19200 39.67213 13595 ft 368 kts 209°
2026-04-28 19:57 24.16915 39.65931 14180 ft 370 kts 209°
2026-04-28 19:57 24.14613 39.64645 14756 ft 372 kts 209°
2026-04-28 19:58 24.12297 39.63353 15343 ft 374 kts 209°
2026-04-28 19:58 24.09976 39.62060 15934 ft 376 kts 209°
2026-04-28 19:58 24.07641 39.60760 16488 ft 378 kts 209°
2026-04-28 19:58 24.05278 39.59445 16935 ft 383 kts 209°
2026-04-28 19:59 24.02896 39.58121 17461 ft 385 kts 208°
2026-04-28 19:59 24.00539 39.56811 18045 ft 386 kts 208°
2026-04-28 19:59 23.98141 39.55474 18541 ft 388 kts 209°
2026-04-28 19:59 23.95727 39.54132 19011 ft 390 kts 209°
2026-04-28 20:00 23.93298 39.52788 19444 ft 393 kts 209°
2026-04-28 20:00 23.90860 39.51436 19942 ft 393 kts 209°
2026-04-28 20:00 23.88413 39.50078 20379 ft 396 kts 209°
2026-04-28 20:00 23.85948 39.48710 20769 ft 399 kts 210°
2026-04-28 20:01 23.83462 39.47330 21129 ft 402 kts 209°
2026-04-28 20:01 23.80963 39.45945 21557 ft 403 kts 209°
2026-04-28 20:01 23.78455 39.44558 22021 ft 405 kts 210°
2026-04-28 20:01 23.75938 39.43165 22470 ft 406 kts 210°
2026-04-28 20:02 23.73337 39.41924 22863 ft 411 kts 202°
2026-04-28 20:02 23.70598 39.40992 23329 ft 413 kts 202°
2026-04-28 20:02 23.67838 39.40079 23678 ft 416 kts 199°
2026-04-28 20:02 23.65031 39.39226 23875 ft 421 kts 200°
2026-04-28 20:03 23.62220 39.38315 24166 ft 422 kts 201°
2026-04-28 20:03 23.59412 39.37359 24452 ft 423 kts 202°
2026-04-28 20:03 23.56615 39.36338 24705 ft 425 kts 202°
2026-04-28 20:03 23.53820 39.35359 24951 ft 428 kts 202°
2026-04-28 20:04 23.50974 39.34380 25172 ft 430 kts 202°
2026-04-28 20:04 23.48110 39.33397 25395 ft 433 kts 202°
2026-04-28 20:04 23.45235 39.32410 25625 ft 434 kts 202°
2026-04-28 20:04 23.42347 39.31416 25824 ft 436 kts 202°
2026-04-28 20:05 23.39447 39.30416 26012 ft 438 kts 202°
2026-04-28 20:05 23.36530 39.29413 26207 ft 440 kts 203°
2026-04-28 20:05 23.33608 39.28404 26388 ft 442 kts 203°
2026-04-28 20:05 23.30673 39.27390 26554 ft 444 kts 203°
2026-04-28 20:06 23.27725 39.26372 26736 ft 445 kts 203°
2026-04-28 20:06 23.24770 39.25352 26923 ft 446 kts 203°
2026-04-28 20:06 23.21806 39.24331 27089 ft 448 kts 203°
2026-04-28 20:06 23.18829 39.23306 27208 ft 450 kts 203°
2026-04-28 20:07 23.15840 39.22276 27283 ft 453 kts 203°
2026-04-28 20:07 23.13844 39.21588 27370 ft 454 kts 203°
2026-04-28 20:07 23.09804 39.20199 27644 ft 455 kts 203°
2026-04-28 20:07 23.06784 39.19161 27817 ft 456 kts 204°
2026-04-28 20:08 23.03753 39.18120 27952 ft 457 kts 204°
2026-04-28 20:08 23.00758 39.17091 28066 ft 459 kts 204°
2026-04-28 20:08 22.97733 39.16055 28148 ft 447 kts 204°
2026-04-28 20:08 22.94827 39.15066 28091 ft 428 kts 204°
2026-04-28 20:09 22.92042 39.14117 28071 ft 410 kts 204°
2026-04-28 20:09 22.87392 39.12515 28128 ft 410 kts 204°
2026-04-28 20:10 22.81853 39.10606 28267 ft 426 kts 203°
2026-04-28 20:10 22.78911 39.09895 28305 ft 438 kts 195°
2026-04-28 20:10 22.75913 39.09679 28273 ft 429 kts 186°
2026-04-28 20:11 22.70010 39.09931 28339 ft 430 kts 185°
2026-04-28 20:11 22.63931 39.10093 28452 ft 444 kts 186°
2026-04-28 20:12 22.57660 39.10231 28550 ft 456 kts 186°
2026-04-28 20:12 22.51238 39.10378 28631 ft 467 kts 186°
2026-04-28 20:13 22.44680 39.10535 28679 ft 476 kts 185°
2026-04-28 20:13 22.38056 39.10697 28800 ft 481 kts 185°
2026-04-28 20:13 22.34705 39.10780 28962 ft 482 kts 185°
2026-04-28 20:14 22.31351 39.10863 29180 ft 481 kts 185°
2026-04-28 20:14 22.28008 39.10945 29371 ft 481 kts 185°
2026-04-28 20:14 22.24660 39.11026 29531 ft 481 kts 185°
2026-04-28 20:14 22.21309 39.11106 29699 ft 482 kts 185°
2026-04-28 20:15 22.17959 39.11186 29889 ft 482 kts 185°
2026-04-28 20:15 22.14606 39.11266 30058 ft 482 kts 185°
2026-04-28 20:15 22.11254 39.11346 30242 ft 481 kts 185°
2026-04-28 20:15 22.07911 39.11427 30459 ft 480 kts 185°
2026-04-28 20:16 22.04576 39.11507 30674 ft 478 kts 185°
2026-04-28 20:16 22.01256 39.11587 30893 ft 477 kts 185°
2026-04-28 20:16 21.97937 39.11666 31106 ft 476 kts 185°
2026-04-28 20:16 21.94625 39.11744 31295 ft 476 kts 185°
2026-04-28 20:17 21.91315 39.11823 31508 ft 475 kts 185°
2026-04-28 20:17 21.88015 39.11901 31747 ft 474 kts 185°
2026-04-28 20:17 21.84724 39.11980 32005 ft 473 kts 185°
2026-04-28 20:17 21.81442 39.12058 32268 ft 471 kts 185°
2026-04-28 20:18 21.78208 39.12135 32521 ft 470 kts 185°
2026-04-28 20:18 21.75997 39.12187 32682 ft 470 kts 185°
2026-04-28 20:18 21.71677 39.12289 33017 ft 468 kts 185°
2026-04-28 20:18 21.68429 39.12322 33234 ft 466 kts 186°
2026-04-28 20:19 21.65188 39.12260 33472 ft 465 kts 187°
2026-04-28 20:19 21.61964 39.12157 33747 ft 463 kts 188°
2026-04-28 20:19 21.58743 39.12044 34016 ft 462 kts 188°
2026-04-28 20:19 21.55541 39.11937 34272 ft 460 kts 188°
2026-04-28 20:20 21.52338 39.11839 34485 ft 460 kts 187°
2026-04-28 20:20 21.49140 39.11750 34714 ft 459 kts 187°
2026-04-28 20:20 21.45947 39.11666 34941 ft 458 kts 187°
2026-04-28 20:20 21.42766 39.11586 35163 ft 458 kts 187°
2026-04-28 20:21 21.39580 39.11507 35373 ft 457 kts 187°
2026-04-28 20:21 21.36399 39.11429 35622 ft 456 kts 187°
2026-04-28 20:21 21.33233 39.11351 35897 ft 454 kts 187°
2026-04-28 20:21 21.30086 39.11274 36152 ft 452 kts 187°
2026-04-28 20:22 21.26940 39.11195 36369 ft 452 kts 187°
2026-04-28 20:22 21.23797 39.11117 36574 ft 451 kts 187°
2026-04-28 20:22 21.20654 39.11038 36788 ft 451 kts 187°
2026-04-28 20:22 21.17555 39.10960 36944 ft 451 kts 186°
2026-04-28 20:23 21.14415 39.10881 37100 ft 452 kts 186°
2026-04-28 20:23 21.11278 39.10803 37316 ft 451 kts 186°
2026-04-28 20:23 21.08142 39.10725 37568 ft 449 kts 186°
2026-04-28 20:23 21.05020 39.10648 37795 ft 448 kts 186°
2026-04-28 20:24 21.01902 39.10571 37871 ft 449 kts 186°
2026-04-28 20:24 20.95632 39.10413 37878 ft 450 kts 186°
2026-04-28 20:25 20.89391 39.10260 37867 ft 448 kts 186°
2026-04-28 20:25 20.83177 39.10105 37874 ft 446 kts 186°
2026-04-28 20:26 20.76978 39.09951 37872 ft 445 kts 186°
2026-04-28 20:26 20.70785 39.09797 37872 ft 445 kts 186°
2026-04-28 20:27 20.64586 39.09640 37868 ft 446 kts 186°
2026-04-28 20:27 20.58376 39.09481 37874 ft 447 kts 186°
2026-04-28 20:28 20.52184 39.09323 37870 ft 449 kts 186°
2026-04-28 20:28 20.45912 39.09163 37868 ft 451 kts 186°
2026-04-28 20:29 20.39626 39.09003 37862 ft 453 kts 185°
2026-04-28 20:29 20.33316 39.08843 37868 ft 454 kts 185°
2026-04-28 20:30 20.26996 39.08682 37862 ft 455 kts 185°
2026-04-28 20:30 20.20667 39.08522 37866 ft 455 kts 185°
2026-04-28 20:31 20.14339 39.08362 37858 ft 455 kts 185°
2026-04-28 20:31 20.08014 39.08202 37867 ft 455 kts 185°
2026-04-28 20:32 20.01691 39.08042 37868 ft 454 kts 185°
2026-04-28 20:32 19.95407 39.07883 37868 ft 454 kts 185°
2026-04-28 20:33 19.89091 39.07724 37856 ft 454 kts 185°
2026-04-28 20:33 19.82777 39.07564 37869 ft 453 kts 185°
2026-04-28 20:34 19.76473 39.07405 37867 ft 453 kts 185°
2026-04-28 20:34 19.70171 39.07246 37869 ft 453 kts 185°
2026-04-28 20:35 19.63868 39.07088 37872 ft 453 kts 185°
2026-04-28 20:35 19.57563 39.06929 37868 ft 453 kts 185°
2026-04-28 20:36 19.51258 39.06770 37868 ft 453 kts 185°
2026-04-28 20:36 19.44950 39.06612 37867 ft 454 kts 185°
2026-04-28 20:37 19.38637 39.06453 37854 ft 454 kts 184°
2026-04-28 20:37 19.32368 39.06296 37875 ft 454 kts 184°
2026-04-28 20:38 19.26053 39.06137 37868 ft 454 kts 184°
2026-04-28 20:38 19.19735 39.05979 37863 ft 454 kts 184°
2026-04-28 20:39 19.13408 39.05820 37877 ft 455 kts 184°
2026-04-28 20:39 19.07089 39.05555 37870 ft 454 kts 186°
2026-04-28 20:40 19.00772 39.05175 37871 ft 455 kts 186°
2026-04-28 20:40 18.94451 39.04799 37868 ft 455 kts 186°
2026-04-28 20:41 18.88126 39.04440 37869 ft 455 kts 186°
2026-04-28 20:41 18.81799 39.04089 37875 ft 455 kts 185°
2026-04-28 20:42 18.75468 39.03739 37870 ft 456 kts 185°
2026-04-28 20:42 18.69129 39.03389 37881 ft 456 kts 185°
2026-04-28 20:43 18.62793 39.03038 37883 ft 456 kts 185°
2026-04-28 20:43 18.56452 39.02687 37864 ft 456 kts 185°
2026-04-28 20:44 18.50111 39.02337 37880 ft 456 kts 185°
2026-04-28 20:44 18.43766 39.01987 37878 ft 457 kts 185°
2026-04-28 20:45 18.38491 39.01696 37882 ft 457 kts 185°
2026-04-28 20:45 18.32142 39.01345 37853 ft 457 kts 185°
2026-04-28 20:46 18.25789 39.00995 37872 ft 457 kts 185°
2026-04-28 20:46 18.19444 39.00646 37868 ft 457 kts 185°
2026-04-28 20:47 18.13083 39.00329 37869 ft 457 kts 184°
2026-04-28 20:47 18.06766 39.00109 37869 ft 458 kts 183°
2026-04-28 20:48 18.00399 38.99895 37867 ft 458 kts 183°
2026-04-28 20:48 17.94028 38.99669 37872 ft 458 kts 183°
2026-04-28 20:49 17.87660 38.99437 37879 ft 458 kts 183°
2026-04-28 20:49 17.81289 38.99204 37873 ft 459 kts 183°
2026-04-28 20:50 17.74905 38.98971 37872 ft 459 kts 183°
2026-04-28 20:50 17.68520 38.98739 37875 ft 459 kts 183°
2026-04-28 20:51 17.62138 38.98507 37877 ft 460 kts 183°
2026-04-28 20:51 17.55741 38.98274 37877 ft 460 kts 183°
2026-04-28 20:52 17.49333 38.98041 37872 ft 461 kts 183°
2026-04-28 20:52 17.42922 38.97808 37878 ft 461 kts 183°
2026-04-28 20:53 17.33291 38.97459 37880 ft 462 kts 183°
2026-04-28 20:53 17.26872 38.97226 37880 ft 462 kts 182°
2026-04-28 20:54 17.20441 38.96993 37882 ft 462 kts 182°
2026-04-28 20:54 17.14049 38.96762 37881 ft 463 kts 182°
2026-04-28 20:55 17.07567 38.96527 37882 ft 463 kts 182°
2026-04-28 20:55 17.01161 38.96295 37883 ft 464 kts 182°
2026-04-28 20:56 16.94708 38.96062 37881 ft 464 kts 182°
2026-04-28 20:56 16.88257 38.95829 37882 ft 464 kts 182°
2026-04-28 20:57 16.81802 38.95596 37883 ft 464 kts 182°
2026-04-28 20:57 16.75347 38.95363 37884 ft 464 kts 182°
2026-04-28 20:58 16.68893 38.95130 37888 ft 464 kts 182°
2026-04-28 20:58 16.62442 38.94897 37890 ft 464 kts 182°
2026-04-28 20:59 16.55993 38.94665 37890 ft 464 kts 182°
2026-04-28 20:59 16.49547 38.94433 37894 ft 464 kts 182°
2026-04-28 21:00 16.43099 38.94201 37890 ft 463 kts 182°
2026-04-28 21:00 16.36651 38.93969 37903 ft 463 kts 182°
2026-04-28 21:01 16.30253 38.93740 37910 ft 463 kts 182°
2026-04-28 21:01 16.23807 38.93508 37915 ft 463 kts 182°
2026-04-28 21:02 16.17362 38.93277 37918 ft 463 kts 182°
2026-04-28 21:02 16.10921 38.93046 37924 ft 463 kts 182°
2026-04-28 21:03 16.04476 38.92815 37928 ft 463 kts 182°
2026-04-28 21:03 15.98035 38.92585 37927 ft 463 kts 182°
2026-04-28 21:04 15.91590 38.92354 37937 ft 463 kts 182°
2026-04-28 21:04 15.85145 38.92123 37941 ft 463 kts 182°
2026-04-28 21:05 15.78747 38.91895 37942 ft 463 kts 182°
2026-04-28 21:05 15.72302 38.91665 37954 ft 463 kts 182°
2026-04-28 21:06 15.65854 38.91435 37951 ft 463 kts 182°
2026-04-28 21:06 15.59419 38.91205 37969 ft 463 kts 182°
2026-04-28 21:07 15.52983 38.90976 37974 ft 462 kts 182°
2026-04-28 21:07 15.46563 38.90747 37975 ft 462 kts 182°
2026-04-28 21:08 15.40141 38.90518 37982 ft 461 kts 182°
2026-04-28 21:08 15.33737 38.90290 37989 ft 460 kts 182°
2026-04-28 21:09 15.27351 38.90068 37994 ft 458 kts 181°
2026-04-28 21:09 15.20983 38.90025 37998 ft 457 kts 180°
2026-04-28 21:10 15.14624 38.90058 38002 ft 456 kts 180°
2026-04-28 21:10 15.08289 38.90073 38006 ft 455 kts 180°
2026-04-28 21:11 15.01955 38.90069 38010 ft 455 kts 180°
2026-04-28 21:11 14.95623 38.90060 38008 ft 455 kts 180°
2026-04-28 21:12 14.89288 38.90051 38010 ft 456 kts 180°
2026-04-28 21:12 14.82945 38.90042 38008 ft 456 kts 180°
2026-04-28 21:13 14.76583 38.90034 38003 ft 457 kts 180°
2026-04-28 21:13 14.70215 38.90026 38004 ft 458 kts 180°
2026-04-28 21:14 14.63880 38.90018 38002 ft 459 kts 180°
2026-04-28 21:14 14.57493 38.90010 38003 ft 459 kts 180°
2026-04-28 21:15 14.51058 38.90002 38016 ft 459 kts 180°
2026-04-28 21:15 14.44735 38.90422 38014 ft 458 kts 173°
2026-04-28 21:16 14.38409 38.91188 38004 ft 457 kts 173°
2026-04-28 21:16 14.32094 38.91957 38004 ft 456 kts 173°
2026-04-28 21:17 14.25783 38.92681 38009 ft 456 kts 173°
2026-04-28 21:17 14.19484 38.93381 38012 ft 455 kts 174°
2026-04-28 21:18 14.13194 38.94074 38019 ft 454 kts 174°
2026-04-28 21:18 14.06905 38.94767 38017 ft 454 kts 174°
2026-04-28 21:19 14.00627 38.95459 38018 ft 454 kts 174°
2026-04-28 21:19 13.94347 38.96152 38019 ft 454 kts 174°
2026-04-28 21:20 13.88070 38.96844 38015 ft 454 kts 174°
2026-04-28 21:20 13.81784 38.97537 38011 ft 455 kts 174°
2026-04-28 21:21 13.75488 38.98230 38012 ft 455 kts 174°
2026-04-28 21:21 13.69192 38.98923 38007 ft 456 kts 174°
2026-04-28 21:22 13.62921 38.99613 37997 ft 456 kts 174°
2026-04-28 21:22 13.57636 39.00194 37997 ft 456 kts 174°
2026-04-28 21:23 13.50294 39.01001 37994 ft 457 kts 174°
2026-04-28 21:23 13.43972 39.01695 37992 ft 457 kts 174°
2026-04-28 21:24 13.37650 39.02389 37989 ft 457 kts 173°
2026-04-28 21:24 13.31330 39.03083 37990 ft 457 kts 173°
2026-04-28 21:25 13.25017 39.03775 37987 ft 456 kts 173°
2026-04-28 21:25 13.18707 39.04467 37991 ft 456 kts 173°
2026-04-28 21:26 13.12400 39.05158 37986 ft 456 kts 173°
2026-04-28 21:26 13.06097 39.05848 37991 ft 455 kts 173°
2026-04-28 21:27 12.99791 39.06538 37995 ft 455 kts 173°
2026-04-28 21:27 12.93529 39.07223 38002 ft 455 kts 173°
2026-04-28 21:28 12.87226 39.07912 38004 ft 455 kts 173°
2026-04-28 21:28 12.80918 39.08601 38020 ft 455 kts 173°
2026-04-28 21:29 12.74627 39.09288 38012 ft 455 kts 173°
2026-04-28 21:29 12.68328 39.09976 38026 ft 455 kts 173°
2026-04-28 21:30 12.62030 39.10663 38033 ft 455 kts 173°
2026-04-28 21:30 12.55774 39.11345 38038 ft 455 kts 173°
2026-04-28 21:31 12.49475 39.12032 38041 ft 455 kts 173°
2026-04-28 21:31 12.43170 39.12719 38062 ft 456 kts 173°
2026-04-28 21:32 12.36856 39.13407 38065 ft 456 kts 173°
2026-04-28 21:32 12.30548 39.14093 38076 ft 456 kts 173°
2026-04-28 21:33 12.24244 39.14779 38092 ft 456 kts 173°
2026-04-28 21:33 12.18999 39.15349 38093 ft 456 kts 173°
2026-04-28 21:34 12.12684 39.16036 38099 ft 457 kts 173°
2026-04-28 21:34 12.06364 39.16722 38112 ft 457 kts 173°
2026-04-28 21:35 12.00042 39.17409 38118 ft 457 kts 173°
2026-04-28 21:35 11.93714 39.18096 38108 ft 458 kts 173°
2026-04-28 21:36 11.87378 39.18783 38114 ft 457 kts 173°
2026-04-28 21:36 11.81047 39.19470 38108 ft 458 kts 173°
2026-04-28 21:37 11.74716 39.20156 38106 ft 458 kts 173°
2026-04-28 21:37 11.68377 39.20843 38106 ft 458 kts 173°
2026-04-28 21:38 11.62035 39.21530 38094 ft 458 kts 173°
2026-04-28 21:38 11.58903 39.21868 38069 ft 445 kts 174°
2026-04-28 21:38 11.55877 39.22196 38076 ft 430 kts 174°
2026-04-28 21:39 11.52948 39.22512 38073 ft 417 kts 173°
2026-04-28 21:39 11.50105 39.22820 38082 ft 403 kts 173°
2026-04-28 21:39 11.47369 39.23116 38077 ft 391 kts 174°
2026-04-28 21:39 11.44671 39.23408 38084 ft 390 kts 174°
2026-04-28 21:40 11.39201 39.23860 38090 ft 399 kts 182°
2026-04-28 21:40 11.33661 39.22967 38104 ft 408 kts 192°
2026-04-28 21:41 11.28124 39.21759 38105 ft 412 kts 192°
2026-04-28 21:41 11.22533 39.20561 38087 ft 407 kts 191°
2026-04-28 21:42 11.17052 39.19415 38104 ft 400 kts 191°
2026-04-28 21:42 11.11593 39.18285 38116 ft 400 kts 191°
2026-04-28 21:43 11.06133 39.17156 38127 ft 401 kts 191°
2026-04-28 21:43 11.00648 39.16023 38129 ft 403 kts 191°
2026-04-28 21:44 10.95140 39.14885 38147 ft 405 kts 191°
2026-04-28 21:44 10.89592 39.13738 38145 ft 408 kts 191°
2026-04-28 21:45 10.84010 39.12585 38133 ft 410 kts 191°
2026-04-28 21:45 10.78399 39.11426 38130 ft 412 kts 191°
2026-04-28 21:46 10.72756 39.10313 38119 ft 413 kts 188°
2026-04-28 21:46 10.67109 39.09516 38118 ft 412 kts 186°
2026-04-28 21:47 10.61415 39.08784 38103 ft 411 kts 187°
2026-04-28 21:47 10.55747 39.08034 38096 ft 410 kts 187°
2026-04-28 21:48 10.50088 39.07266 37696 ft 414 kts 187°
2026-04-28 21:48 10.47241 39.06877 37257 ft 412 kts 187°
2026-04-28 21:48 10.44399 39.06487 36719 ft 413 kts 187°
2026-04-28 21:49 10.41546 39.06096 36178 ft 414 kts 187°
2026-04-28 21:49 10.38678 39.05703 35592 ft 418 kts 187°
2026-04-28 21:49 10.35784 39.05306 34973 ft 422 kts 187°
2026-04-28 21:49 10.32852 39.04904 34312 ft 428 kts 187°
2026-04-28 21:50 10.29889 39.04498 33574 ft 433 kts 187°
2026-04-28 21:50 10.26889 39.04087 32873 ft 437 kts 187°
2026-04-28 21:50 10.23865 39.03673 32142 ft 441 kts 187°
2026-04-28 21:50 10.20809 39.03255 31406 ft 445 kts 187°
2026-04-28 21:51 10.17724 39.02833 30622 ft 450 kts 186°
2026-04-28 21:51 10.14602 39.02406 29740 ft 456 kts 186°
2026-04-28 21:51 10.11440 39.01974 28808 ft 459 kts 186°
2026-04-28 21:51 10.08263 39.01540 27904 ft 463 kts 187°
2026-04-28 21:52 10.05083 39.01105 27267 ft 459 kts 187°
2026-04-28 21:52 10.01932 39.00673 26615 ft 456 kts 187°
2026-04-28 21:52 9.98791 39.00243 25987 ft 453 kts 186°
2026-04-28 21:52 9.95680 38.99818 25336 ft 451 kts 187°
2026-04-28 21:53 9.92569 38.99393 24692 ft 449 kts 187°
2026-04-28 21:53 9.89474 38.98970 24047 ft 448 kts 187°
2026-04-28 21:53 9.86391 38.98549 23352 ft 446 kts 187°
2026-04-28 21:53 9.83328 38.98131 22653 ft 443 kts 187°
2026-04-28 21:54 9.80286 38.97715 21992 ft 439 kts 187°
2026-04-28 21:54 9.77308 38.97309 21361 ft 435 kts 187°
2026-04-28 21:54 9.74319 38.96901 20748 ft 432 kts 187°
2026-04-28 21:54 9.71354 38.96496 20124 ft 428 kts 187°
2026-04-28 21:55 9.68414 38.96095 19491 ft 426 kts 187°
2026-04-28 21:55 9.65488 38.95696 18866 ft 423 kts 187°
2026-04-28 21:55 9.62575 38.95298 18229 ft 420 kts 187°
2026-04-28 21:55 9.59685 38.94904 17549 ft 417 kts 187°
2026-04-28 21:56 9.56821 38.94514 16930 ft 413 kts 187°
2026-04-28 21:56 9.54030 38.94133 16770 ft 398 kts 187°
2026-04-28 21:56 9.51335 38.93765 16586 ft 384 kts 187°
2026-04-28 21:56 9.48725 38.93409 16418 ft 372 kts 187°
2026-04-28 21:57 9.46202 38.93065 16275 ft 360 kts 187°
2026-04-28 21:57 9.43753 38.92732 16128 ft 350 kts 187°
2026-04-28 21:57 9.41378 38.92408 15985 ft 340 kts 187°
2026-04-28 21:57 9.39064 38.92357 15819 ft 329 kts 167°
2026-04-28 21:58 9.36947 38.93133 15524 ft 322 kts 149°
2026-04-28 21:58 9.35070 38.94338 15314 ft 316 kts 144°
2026-04-28 21:58 9.33274 38.95575 15171 ft 308 kts 144°
2026-04-28 21:58 9.31529 38.96785 15039 ft 300 kts 144°
2026-04-28 21:59 9.29822 38.97959 14898 ft 293 kts 144°
2026-04-28 21:59 9.28155 38.99096 14771 ft 285 kts 144°
2026-04-28 21:59 9.26526 39.00199 14653 ft 278 kts 144°
2026-04-28 22:00 9.23395 39.02310 14423 ft 263 kts 144°
2026-04-28 22:00 9.21862 39.03341 14199 ft 265 kts 144°
2026-04-28 22:00 9.20265 39.04220 14109 ft 261 kts 164°
2026-04-28 22:00 9.18471 39.04272 14121 ft 261 kts 193°
2026-04-28 22:01 9.16825 39.03485 14100 ft 266 kts 220°
2026-04-28 22:01 9.15679 39.02020 14094 ft 269 kts 248°
2026-04-28 22:01 9.15333 39.00182 14094 ft 266 kts 276°
2026-04-28 22:01 9.15880 38.98428 14097 ft 263 kts 304°
2026-04-28 22:02 9.17096 38.97079 14107 ft 260 kts 324°
2026-04-28 22:02 9.18559 38.96046 14106 ft 260 kts 328°
2026-04-28 22:02 9.20077 38.95043 14120 ft 261 kts 328°
2026-04-28 22:02 9.21599 38.94029 14118 ft 263 kts 328°
2026-04-28 22:03 9.23125 38.93004 14123 ft 264 kts 329°
2026-04-28 22:03 9.24816 38.92365 14106 ft 259 kts 358°
2026-04-28 22:03 9.26565 38.92628 14115 ft 255 kts 24°
2026-04-28 22:03 9.28007 38.93633 14114 ft 253 kts 49°
2026-04-28 22:04 9.28876 38.95159 14116 ft 252 kts 74°
2026-04-28 22:04 9.28997 38.96920 14113 ft 253 kts 100°
2026-04-28 22:04 9.28338 38.98567 14120 ft 255 kts 124°
2026-04-28 22:04 9.27085 38.99834 14125 ft 257 kts 142°
2026-04-28 22:05 9.25606 39.00859 14125 ft 259 kts 144°
2026-04-28 22:05 9.24096 39.01860 14130 ft 260 kts 145°
2026-04-28 22:05 9.22584 39.02870 14130 ft 261 kts 144°
2026-04-28 22:05 9.21058 39.03882 14104 ft 263 kts 149°
2026-04-28 22:06 9.19311 39.04373 14123 ft 265 kts 180°
2026-04-28 22:06 9.17525 39.03942 14110 ft 267 kts 208°
2026-04-28 22:06 9.16126 39.02725 14120 ft 268 kts 236°
2026-04-28 22:06 9.15443 39.00993 14120 ft 267 kts 265°
2026-04-28 22:07 9.15640 38.99156 14122 ft 264 kts 294°
2026-04-28 22:07 9.16633 38.97625 14128 ft 261 kts 318°
2026-04-28 22:07 9.18048 38.96515 14129 ft 261 kts 327°
2026-04-28 22:07 9.19573 38.95501 14142 ft 263 kts 328°
2026-04-28 22:08 9.21110 38.94483 14135 ft 265 kts 328°
2026-04-28 22:08 9.22650 38.93449 14134 ft 266 kts 328°
2026-04-28 22:08 9.24273 38.92598 14111 ft 262 kts 349°
2026-04-28 22:08 9.26054 38.92600 14127 ft 256 kts 17°
2026-04-28 22:09 9.27612 38.93412 14140 ft 252 kts 42°
2026-04-28 22:09 9.28649 38.94818 14135 ft 251 kts 68°
2026-04-28 22:09 9.28968 38.96545 14131 ft 252 kts 93°
2026-04-28 22:09 9.28494 38.98239 14137 ft 253 kts 118°
2026-04-28 22:10 9.27368 38.99597 14140 ft 255 kts 141°
2026-04-28 22:10 9.25900 39.00626 14147 ft 257 kts 144°
2026-04-28 22:10 9.24404 39.01631 14146 ft 259 kts 144°
2026-04-28 22:10 9.22900 39.02645 14151 ft 261 kts 144°
2026-04-28 22:11 9.21386 39.03670 14140 ft 263 kts 145°
2026-04-28 22:11 9.19685 39.04349 14132 ft 266 kts 174°
2026-04-28 22:11 9.17860 39.04106 14142 ft 269 kts 202°
2026-04-28 22:11 9.16340 39.03025 14136 ft 270 kts 231°
2026-04-28 22:12 9.15491 39.01355 14137 ft 269 kts 259°
2026-04-28 22:12 9.15516 38.99495 14134 ft 266 kts 288°
2026-04-28 22:12 9.16384 38.97874 14144 ft 263 kts 314°
2026-04-28 22:12 9.17775 38.96690 14148 ft 262 kts 327°
2026-04-28 22:13 9.19296 38.95669 14162 ft 263 kts 328°
2026-04-28 22:13 9.20835 38.94651 14158 ft 265 kts 328°
2026-04-28 22:13 9.22374 38.93620 14173 ft 264 kts 328°
2026-04-28 22:13 9.23951 38.92687 14162 ft 262 kts 343°
2026-04-28 22:14 9.25720 38.92525 14193 ft 255 kts 12°
2026-04-28 22:14 9.27314 38.93180 14185 ft 252 kts 37°
2026-04-28 22:14 9.28486 38.94496 14177 ft 250 kts 62°
2026-04-28 22:14 9.28963 38.96176 14179 ft 250 kts 88°
2026-04-28 22:15 9.28653 38.97908 14155 ft 256 kts 113°
2026-04-28 22:15 9.27623 38.99382 14120 ft 260 kts 137°
2026-04-28 22:15 9.26183 39.00445 14092 ft 260 kts 144°
2026-04-28 22:15 9.24673 39.01455 14036 ft 259 kts 144°
2026-04-28 22:16 9.23172 39.02464 13996 ft 259 kts 144°
2026-04-28 22:16 9.21671 39.03479 13864 ft 260 kts 144°
2026-04-28 22:16 9.20063 39.04285 13793 ft 259 kts 169°
2026-04-28 22:16 9.18281 39.04195 13820 ft 262 kts 198°
2026-04-28 22:17 9.16710 39.03261 13812 ft 266 kts 226°
2026-04-28 22:17 9.15730 39.01686 13792 ft 266 kts 255°
2026-04-28 22:17 9.15619 38.99853 13804 ft 262 kts 284°
2026-04-28 22:17 9.16377 38.98214 13819 ft 258 kts 311°
2026-04-28 22:18 9.17701 38.97009 13817 ft 256 kts 327°
2026-04-28 22:18 9.19186 38.96002 13834 ft 258 kts 328°
2026-04-28 22:18 9.20694 38.95007 13801 ft 259 kts 328°
2026-04-28 22:18 9.22195 38.94002 13828 ft 259 kts 328°
2026-04-28 22:19 9.23725 38.93031 13806 ft 259 kts 338°
2026-04-28 22:19 9.25459 38.92745 13839 ft 252 kts
2026-04-28 22:19 9.27093 38.93323 13834 ft 250 kts 35°
2026-04-28 22:19 9.28298 38.94565 13818 ft 250 kts 60°
2026-04-28 22:20 9.28737 38.95635 13837 ft 249 kts 77°
2026-04-28 22:20 9.28749 38.97382 13825 ft 251 kts 103°
2026-04-28 22:20 9.27978 38.98962 13839 ft 253 kts 128°
2026-04-28 22:20 9.26652 39.00147 13844 ft 256 kts 143°
2026-04-28 22:21 9.25170 39.01153 13826 ft 258 kts 145°
2026-04-28 22:21 9.23666 39.02149 13839 ft 258 kts 145°
2026-04-28 22:21 9.22164 39.03156 13814 ft 259 kts 144°
2026-04-28 22:21 9.20626 39.04106 13804 ft 260 kts 157°
2026-04-28 22:22 9.18845 39.04328 13842 ft 262 kts 188°
2026-04-28 22:22 9.17158 39.03646 13807 ft 264 kts 217°
2026-04-28 22:22 9.15973 39.02246 13819 ft 264 kts 246°
2026-04-28 22:22 9.15580 39.00463 13819 ft 262 kts 275°
2026-04-28 22:23 9.16071 38.98716 13831 ft 259 kts 303°
2026-04-28 22:23 9.17252 38.97370 13833 ft 257 kts 324°
2026-04-28 22:23 9.18724 38.96329 13848 ft 259 kts 328°
2026-04-28 22:23 9.20238 38.95331 13830 ft 261 kts 328°
2026-04-28 22:24 9.21750 38.94322 13854 ft 260 kts 328°
2026-04-28 22:24 9.23265 38.93307 13842 ft 261 kts 330°
2026-04-28 22:24 9.24953 38.92743 13850 ft 255 kts
2026-04-28 22:24 9.26664 38.93088 13837 ft 252 kts 27°
2026-04-28 22:25 9.28025 38.94175 13837 ft 251 kts 53°
2026-04-28 22:25 9.28762 38.95751 13838 ft 250 kts 79°
2026-04-28 22:25 9.28724 38.97476 13839 ft 251 kts 105°
2026-04-28 22:25 9.27918 38.99036 13854 ft 253 kts 129°
2026-04-28 22:26 9.26577 39.00199 13863 ft 255 kts 143°
2026-04-28 22:26 9.25092 39.01204 13844 ft 257 kts 145°
2026-04-28 22:26 9.23596 39.02196 13855 ft 258 kts 145°
2026-04-28 22:26 9.22096 39.03201 13833 ft 259 kts 144°
2026-04-28 22:27 9.20551 39.04131 13826 ft 260 kts 159°
2026-04-28 22:27 9.18767 39.04307 13853 ft 262 kts 190°
2026-04-28 22:27 9.17103 39.03594 13826 ft 264 kts 218°
2026-04-28 22:27 9.15950 39.02169 13849 ft 264 kts 247°
2026-04-28 22:28 9.15600 39.00374 13857 ft 262 kts 276°
2026-04-28 22:28 9.16136 38.98642 13841 ft 259 kts 304°
2026-04-28 22:28 9.17351 38.97318 13850 ft 258 kts 325°
2026-04-28 22:28 9.18831 38.96283 13870 ft 259 kts 328°
2026-04-28 22:29 9.20345 38.95286 13852 ft 260 kts 328°
2026-04-28 22:29 9.21853 38.94279 13873 ft 260 kts 328°
2026-04-28 22:29 9.23374 38.93269 13862 ft 261 kts 332°
2026-04-28 22:29 9.25078 38.92767 13871 ft 255 kts
2026-04-28 22:30 9.26783 38.93157 13863 ft 252 kts 29°
2026-04-28 22:30 9.28112 38.94279 13857 ft 251 kts 55°
2026-04-28 22:30 9.28800 38.95886 13871 ft 250 kts 81°
2026-04-28 22:30 9.28691 38.97631 13856 ft 252 kts 108°
2026-04-28 22:31 9.27818 38.99161 13873 ft 254 kts 132°
2026-04-28 22:31 9.26464 39.00281 13879 ft 256 kts 144°
2026-04-28 22:31 9.24975 39.01282 13854 ft 258 kts 145°
2026-04-28 22:31 9.23473 39.02278 13874 ft 258 kts 145°
2026-04-28 22:32 9.21970 39.03286 13851 ft 259 kts 144°
2026-04-28 22:32 9.20402 39.04174 13845 ft 260 kts 162°
2026-04-28 22:32 9.18610 39.04268 13871 ft 262 kts 192°
2026-04-28 22:32 9.16965 39.03489 13843 ft 264 kts 220°
2026-04-28 22:33 9.15870 39.02023 13875 ft 264 kts 249°
2026-04-28 22:33 9.15594 39.00211 13867 ft 262 kts 279°
2026-04-28 22:33 9.16200 38.98507 13876 ft 258 kts 306°
2026-04-28 22:33 9.17448 38.97219 13862 ft 257 kts 325°
2026-04-28 22:34 9.18926 38.96196 13880 ft 259 kts 328°
2026-04-28 22:34 9.20437 38.95199 13874 ft 259 kts 328°
2026-04-28 22:34 9.21941 38.94195 13890 ft 260 kts 328°
2026-04-28 22:34 9.23461 38.93192 13872 ft 260 kts 334°
2026-04-28 22:35 9.25174 38.92740 13893 ft 255 kts
2026-04-28 22:35 9.26866 38.93185 13886 ft 252 kts 31°
2026-04-28 22:35 9.28156 38.94331 13874 ft 251 kts 56°
2026-04-28 22:35 9.28812 38.95951 13888 ft 251 kts 82°
2026-04-28 22:36 9.28664 38.97722 13871 ft 253 kts 109°
2026-04-28 22:36 9.27749 38.99237 13882 ft 255 kts 134°
2026-04-28 22:36 9.26372 39.00344 13898 ft 260 kts 144°
2026-04-28 22:36 9.24847 39.01367 13898 ft 266 kts 145°
2026-04-28 22:37 9.23289 39.02402 13897 ft 267 kts 145°
2026-04-28 22:37 9.21746 39.03437 13870 ft 265 kts 144°
2026-04-28 22:37 9.20126 39.04294 13879 ft 263 kts 158°
2026-04-28 22:37 9.18406 39.04909 13832 ft 262 kts 158°
2026-04-28 22:38 9.16705 39.05537 13701 ft 258 kts 158°
2026-04-28 22:38 9.15031 39.06174 13436 ft 257 kts 157°
2026-04-28 22:38 9.13355 39.06822 13173 ft 257 kts 157°
2026-04-28 22:38 9.11620 39.07203 12889 ft 259 kts 184°
2026-04-28 22:39 9.09925 39.06630 12589 ft 261 kts 213°
2026-04-28 22:39 9.08537 39.05459 12475 ft 260 kts 224°
2026-04-28 22:39 9.07226 39.04168 12444 ft 265 kts 224°
2026-04-28 22:39 9.05898 39.02856 12208 ft 267 kts 224°
2026-04-28 22:40 9.04579 39.01570 11989 ft 259 kts 224°
2026-04-28 22:40 9.03517 39.00139 11641 ft 256 kts 251°
2026-04-28 22:40 9.03096 38.98414 11325 ft 251 kts 257°
2026-04-28 22:40 9.02618 38.96718 10963 ft 250 kts 253°
2026-04-28 22:41 9.02111 38.95050 10669 ft 246 kts 254°
2026-04-28 22:41 9.01625 38.93408 10327 ft 242 kts 254°
2026-04-28 22:41 9.01156 38.91801 9938 ft 234 kts 254°
2026-04-28 22:41 9.00721 38.90307 9906 ft 209 kts 255°
2026-04-28 22:42 9.00328 38.88965 9926 ft 193 kts 255°
2026-04-28 22:42 9.00088 38.87651 9886 ft 188 kts 278°
2026-04-28 22:42 9.00656 38.86500 10002 ft 197 kts 320°
2026-04-28 22:42 9.01931 38.85873 10296 ft 219 kts 353°
2026-04-28 22:43 9.03493 38.86080 10490 ft 236 kts 23°
2026-04-28 22:43 9.04738 38.87076 10496 ft 235 kts 55°
2026-04-28 22:43 9.05479 38.88581 10478 ft 243 kts 67°
2026-04-28 22:43 9.06107 38.90176 10388 ft 244 kts 68°
2026-04-28 22:44 9.06725 38.91764 10286 ft 240 kts 68°
2026-04-28 22:44 9.07328 38.93320 10176 ft 235 kts 68°
2026-04-28 22:44 9.07917 38.94841 10068 ft 231 kts 68°
2026-04-28 22:44 9.08468 38.96363 9942 ft 228 kts 77°
2026-04-28 22:45 9.08395 38.97906 9877 ft 218 kts 110°
2026-04-28 22:45 9.07491 38.99069 9873 ft 215 kts 145°
2026-04-28 22:45 9.06061 38.99507 9855 ft 220 kts 180°
2026-04-28 22:45 9.04606 38.99053 9858 ft 223 kts 213°
2026-04-28 22:46 9.03414 38.98052 9867 ft 223 kts 223°
2026-04-28 22:46 9.02556 38.96769 9856 ft 220 kts 254°
2026-04-28 22:46 9.02179 38.95302 9868 ft 213 kts 255°
2026-04-28 22:46 9.01769 38.93881 9862 ft 208 kts 253°
2026-04-28 22:47 9.01361 38.92496 9878 ft 204 kts 254°
2026-04-28 22:47 9.00953 38.91103 9638 ft 207 kts 255°
2026-04-28 22:47 9.00547 38.89711 9405 ft 206 kts 254°
2026-04-28 22:47 9.00151 38.88360 9147 ft 195 kts 255°
2026-04-28 22:48 8.99781 38.87094 8929 ft 179 kts 255°
2026-04-28 22:48 8.99439 38.85924 8657 ft 169 kts 254°
2026-04-28 22:48 8.99112 38.84798 8416 ft 166 kts 254°
2026-04-28 22:48 8.98785 38.83685 8187 ft 164 kts 254°
2026-04-28 22:49 8.98465 38.82589 7945 ft 162 kts 255°
2026-04-28 22:49 8.98153 38.81502 7702 ft 160 kts 254°
2026-04-28 22:49 8.97849 38.80464 7624 ft 143 kts 254°
2026-04-28 22:49 8.97541 38.79425 7968 ft 165 kts 253°
2026-04-28 22:50 8.97187 38.78236 8628 ft 186 kts 253°
2026-04-28 22:50 8.96743 38.76930 9137 ft 209 kts 241°
2026-04-28 22:50 8.95663 38.75832 9312 ft 236 kts 207°
2026-04-28 22:50 8.94044 38.75454 9544 ft 244 kts 175°
2026-04-28 22:51 8.92443 38.75970 9750 ft 244 kts 144°
2026-04-28 22:51 8.91351 38.77208 9964 ft 239 kts 112°
2026-04-28 22:51 8.91051 38.78830 10221 ft 237 kts 82°
2026-04-28 22:51 8.91360 38.80464 10466 ft 238 kts 75°
2026-04-28 22:52 8.91760 38.82089 10678 ft 238 kts 75°
2026-04-28 22:52 8.92170 38.83712 10902 ft 238 kts 74°
2026-04-28 22:52 8.92584 38.85332 11129 ft 238 kts 74°
2026-04-28 22:52 8.93008 38.86979 11361 ft 246 kts 74°
2026-04-28 22:53 8.93446 38.88672 11597 ft 251 kts 74°
2026-04-28 22:53 8.93887 38.90374 11814 ft 249 kts 74°
2026-04-28 22:53 8.94324 38.92053 12024 ft 246 kts 74°
2026-04-28 22:53 8.94761 38.93733 12255 ft 248 kts 74°
2026-04-28 22:54 8.95203 38.95429 12477 ft 250 kts 74°
2026-04-28 22:54 8.95651 38.97155 12439 ft 262 kts 74°
2026-04-28 22:54 8.96125 38.98966 12140 ft 268 kts 74°
2026-04-28 22:54 8.96603 39.00785 11846 ft 267 kts 74°
2026-04-28 22:55 8.97081 39.02600 11550 ft 266 kts 74°
2026-04-28 22:55 8.97558 39.04409 11259 ft 266 kts 74°
2026-04-28 22:55 8.98041 39.06207 10978 ft 264 kts 71°
2026-04-28 22:55 8.98953 39.07792 10670 ft 263 kts 44°
2026-04-28 22:56 9.00505 39.08718 10484 ft 259 kts 15°
2026-04-28 22:56 9.02262 39.08749 10368 ft 251 kts 347°
2026-04-28 22:56 9.03755 39.07917 10200 ft 245 kts 316°
2026-04-28 22:56 9.04600 39.06466 10029 ft 239 kts 288°
2026-04-28 22:57 9.04931 39.04854 9883 ft 230 kts 274°
2026-04-28 22:57 9.04602 39.03321 9878 ft 223 kts 247°
2026-04-28 22:57 9.04072 39.01835 9869 ft 226 kts 254°
2026-04-28 22:57 9.03633 39.00306 9878 ft 227 kts 255°
2026-04-28 22:58 9.03194 38.98771 9873 ft 227 kts 254°
2026-04-28 22:58 9.02749 38.97243 9878 ft 226 kts 254°
2026-04-28 22:58 9.02305 38.95723 9881 ft 225 kts 254°
2026-04-28 22:58 9.01860 38.94204 9890 ft 225 kts 254°
2026-04-28 22:59 9.01424 38.92715 9895 ft 216 kts 254°
2026-04-28 22:59 9.01005 38.91281 9677 ft 215 kts 254°
2026-04-28 22:59 9.00582 38.89831 9436 ft 210 kts 254°
2026-04-28 22:59 9.00176 38.88446 9167 ft 198 kts 255°
2026-04-28 23:00 8.99801 38.87162 8910 ft 186 kts 255°
2026-04-28 23:00 8.99450 38.85961 8667 ft 173 kts 255°
2026-04-28 23:00 8.99121 38.84827 8425 ft 165 kts 255°
2026-04-28 23:00 8.98797 38.83718 8189 ft 164 kts 254°
2026-04-28 23:01 8.98474 38.82610 7938 ft 164 kts 254°
2026-04-28 23:01 8.98152 38.81504 7702 ft 163 kts 254°
2026-04-28 23:01 8.97840 38.80436 7623 ft 144 kts 253°
2026-04-28 23:01 8.97626 38.79692 7619 ft 72 kts 254°
2026-04-28 23:02 8.97514 38.79304 7619 ft 43 kts 255°
2026-04-28 23:02 8.97508 38.79093 7618 ft 26 kts 278°
2026-04-28 23:02 8.97535 38.78942 7619 ft 19 kts 283°
2026-04-28 23:02 8.97584 38.78824 7621 ft 18 kts 322°
2026-04-28 23:03 8.97696 38.78782 7620 ft 17 kts 342°
2026-04-28 23:03 8.97807 38.78749 7620 ft 16 kts 344°
2026-04-28 23:03 8.97860 38.78775 7620 ft 10 kts 69°
2026-04-28 23:03 8.97887 38.78862 7620 ft 15 kts 72°
2026-04-28 23:04 8.97920 38.78978 7620 ft 19 kts 74°
2026-04-28 23:04 8.98004 38.79263 7620 ft 23 kts 73°
2026-04-28 23:04 8.98047 38.79413 7620 ft 22 kts 73°
2026-04-28 23:05 8.98090 38.79558 7620 ft 21 kts 73°
2026-04-28 23:05 8.98137 38.79619 7620 ft 9 kts 350°
2026-04-28 23:05 8.98196 38.79602 7620 ft 9 kts 342°
2026-04-28 23:05 8.98224 38.79594 7620 ft 0 kts 344°